Regional Weather Roundup
Issued by NWS Cleveland, OH

Home | Current Version | Previous Version | Graphics & Text | Print | Product List | Glossary On
Versions: 1 2 3 4 5 6 7 8 9 10 11 12 13 14 15 16 17 18 19 20 21 22 23 24 25 26 27 28 29 30 31 32 33 34 35 36 37 38 39 40 41 42 43 44 45 46 47 48 49 50
209
ASUS41 KCLE 241000
RWRCLE
OHIO REGIONAL WEATHER ROUNDUP
NATIONAL WEATHER SERVICE WILMINGTON, OH
500 AM EST FRI NOV 24 2017

NOTE: "FAIR" INDICATES FEW OR NO CLOUDS BELOW 12,000 FEET WITH NO
SIGNIFICANT WEATHER AND/OR OBSTRUCTIONS TO VISIBILITY.

OHZ001>008-015>018-024>027-034-035-043-044-241100-
   NORTHWEST OHIO

CITY           SKY/WX    TMP DP  RH WIND       PRES   REMARKS
DEFIANCE       FAIR      30  22  72 S5        29.90F WCI  25
FINDLAY        FAIR      31  24  75 S10       29.92F WCI  22
TOLEDO EXPRESS FAIR      31  26  82 S6        29.90F WCI  25
TOLEDO EXEC    FAIR      30  24  78 S8        29.92F WCI  22
LIMA           FAIR      31  24  75 S10       29.92F WCI  22
$$

OHZ009>014-019>023-028>033-038-089-241100-
   NORTHEAST OHIO

CITY           SKY/WX    TMP DP  RH WIND       PRES   REMARKS
CLE-HOPKINS    FAIR      33  24  69 S6        29.98S WCI  28
CLE-LAKEFRONT  FAIR      34  24  67 S8        29.95S WCI  27
CUY CO. ARPT   NOT AVBL
LORAIN-ELYRIA  FAIR      29  21  72 S5        29.96R WCI  24
ASHTABULA      FAIR      30  24  78 S8        29.96F WCI  22
AKRON-CANTON   FAIR      29  21  72 S6        29.96S WCI  23
WOOSTER        NOT AVBL
MANSFIELD      FAIR      29  23  78 S9        29.94F WCI  20
YOUNGSTOWN     FAIR      30  22  72 S7        29.96S WCI  23
$$

OHZ042-051>053-060>062-070>072-077>081-241100-
  SOUTHWEST OHIO

CITY           SKY/WX    TMP DP  RH WIND       PRES   REMARKS
CINC-COVINGTON FAIR      30  25  81 S7        29.97F WCI  23
CINC-LUNKEN    FAIR      25  24  96 CALM      30.01F FOG
HAMILTON       FAIR      29  26  89 E5        29.99F WCI  24
DAYTON         NOT AVBL
WRIGHT-PAT AFB FAIR      29  24  82 SE5       29.96F WCI  24
DAYTON GENERAL FAIR      30  23  75 S8        29.96S WCI  22
WILMINGTON     FAIR      30  25  81 S6        29.97F WCI  24
$$

OHZ036-037-039>041-045>050-054>059-063>069-073>076-082>088-241100-
  CENTRAL AND SOUTHEAST OHIO

CITY           SKY/WX    TMP DP  RH WIND       PRES   REMARKS
COLUMBUS       FAIR      28  23  81 CALM      29.98F
OSU AIRPORT    FAIR      31  25  78 S5        29.97F WCI  26
BOLTON FIELD   FAIR      28  24  84 S5        29.99S WCI  23
RICKENBACK AFB NOT AVBL
NEWARK         FAIR      24  20  84 CALM      29.99S
MARION         FAIR      28  23  81 S9        29.96S WCI  19
LANCASTER      FAIR      25  22  88 S3        29.99F
ZANESVILLE     FAIR      26  21  81 SE3       30.00S
NEW PHILLY     FAIR      27  23  85 SE6       30.00F WCI  20
$$




USA.gov is the U.S. government's official web portal to all federal, state and local government web resources and services.